STARLINK-30252 (57607 NORAD) Tracking and Keplerian Element Data

This shows tracking and keplerian element data for the satellite.

Feedback or suggestion? Click here.




ElementValue
Catalog57607
NameSTARLINK-30252
Epoch Orbit2485
Epoch Day13.13060336
Epoch Year2024
RAAN23.0991
Inclination43.0043
Eccentricity8.83E-05
Argument of Perigee275.9123
Mean Anonmoly84.1619
Mean Motion15.02517993
Decay Rate-9.28E-06
L11 57607U 23119F 24013.13060336 -.00000928 00000+0 -53667-4 0 9994
L22 57607 43.0043 23.0991 0000883 275.9123 84.1619 15.02517993 24853



Live tracking and technical data element details for STARLINK-30252 (NORAD 57607). STARLINK-30252 can be tracked NOW for your location showing map with azimuth and elevation plus other details from your city location.







IsCatalogInMostPopularTable: catalog: 57607, numindb: 22
Update: records affected: 1



GetName: 57607 STARLINK-30252

Hit Count: updated at: Thu, 29 Feb 2024 11:23:29 GMT